User: anonymous   Login
Location: Unspecified
(0.0000°N, 0.0000°E)
Time: 11:18:18
(UTC+00:00)
Language:

USA 247 - Orbit

View from above orbital plane
View from above orbital plane
View from above satellite
View from above satellite

Ground track
Ground track

The orbit data is extracted from the following two-line orbital elements,

1 39462U 13072A   19057.21449650 0.00000000  00000-0  00000-0 0    03
2 39462 122.9815  26.2028 0005402  57.8807 302.1193 13.41418956    01
Epoch (UTC): 26 February 2019 05:08:52
Eccentricity: 0.0005402
inclination: 122.9815°
perigee height: 1100 km
apogee height: 1108 km
right ascension of ascending node: 26.2028°
argument of perigee: 57.8807°
revolutions per day: 13.41418956
mean anomaly at epoch: 302.1193°
orbit number at epoch: 0

The dashed part of the orbit path shows where the satellite is in the earth's shadow,  

DLR